Content
SEND FEEDBACK

Daily
Averages
Monthly
Summary
United States of America

ALBANY, NEW YORK


Home > North America > United States > New York
Elevation: 275 feet     Latitude: 42 45N     Longitude: 073 48W

WEATHER
 
SELECT A DAY
Number of Records: 206,264;   Date Range: 1/1/95 - 7/7/14
 
SHARE

PRINT THIS DATA

[ ← Previous Day ]
WEATHER ALMANAC - APRIL 23, 2013
[ Next Day → ]
[ °C ]   °F
Weather ElementAverageHighLow
Temperature42.9 °F53.1 °F (4:51 pm)30.9 °F (4:51 am)
Dewpoint30.9 °F36 °F (2:51 pm)24.1 °F (4:51 am)
Humidity63.2 %83 % (11:51 pm)50 % (4:51 pm)
Barometer30.35 in30.51 in (1:51 am)30.15 in (11:51 pm)
Wind Speed2.5 mph9.2 mph (5:51 pm)
Weather ElementAverage
Visibility10 mi
Wind DirectionENE (78.7 °)

Weather ElementTotal
Precipitation---
Heating Degree Days23 (Base 65)
Averaged from 23 records on April 23, 2013
WEATHER CONDITIONS BREAKOUT
WIND DIRECTION BREAKOUT
WEATHER BY HOUR - APRIL 23, 2013
[ °C ]   °F
Local TimeTemperatureDewpointHumidityBarometerVisibilityWind DirectionWind SpeedGust SpeedPrecipitationEventsConditions
1:51 AM39.0 °F26.1 °F60 %30.51 in10.0 miSSE (160°)3.5 mphClear
2:51 AM37.9 °F25.0 °F60 %30.49 in10.0 miCalmClear
3:51 AM32.0 °F25.0 °F75 %30.49 in10.0 miCalmClear
4:51 AM30.9 °F24.1 °F76 %30.48 in10.0 miCalmPartly Cloudy
5:51 AM30.9 °F25.0 °F79 %30.48 in10.0 miCalmPartly Cloudy
6:51 AM32.0 °F27.0 °F82 %30.48 in10.0 miCalmPartly Cloudy
7:51 AM37.9 °F28.0 °F68 %30.47 in10.0 miCalmScattered Clouds
8:51 AM41.0 °F26.1 °F55 %30.45 in10.0 miEast (90°)4.6 mphMostly Cloudy
9:51 AM42.1 °F27.0 °F55 %30.43 in10.0 miCalmOvercast
10:51 AM43.0 °F27.0 °F53 %30.42 in10.0 miCalmOvercast
11:51 AM45.0 °F28.9 °F53 %30.39 in10.0 miSW (230°)4.6 mphOvercast
12:51 PM46.0 °F30.9 °F56 %30.35 in10.0 miVariable5.8 mphOvercast
1:51 PM46.0 °F33.1 °F61 %30.35 in10.0 miSouth (170°)4.6 mphOvercast
2:51 PM48.0 °F36.0 °F63 %30.31 in10.0 miSSW (200°)3.5 mphOvercast
3:51 PM52.0 °F36.0 °F54 %30.28 in10.0 miCalmMostly Cloudy
4:51 PM53.1 °F35.1 °F50 %30.26 in10.0 miSSE (160°)8.1 mphOvercast
5:51 PM53.1 °F35.1 °F50 %30.26 in10.0 miSSE (160°)9.2 mphMostly Cloudy
6:51 PM52.0 °F36.0 °F54 %30.23 in10.0 miSSW (210°)4.6 mphOvercast
7:51 PM50.0 °F36.0 °F59 %30.22 in10.0 miSSW (210°)4.6 mphOvercast
8:51 PM48.9 °F36.0 °F61 %30.19 in10.0 miCalmMostly Cloudy
9:51 PM45.0 °F36.0 °F71 %30.18 in10.0 miSW (220°)3.5 mphPartly Cloudy
10:51 PM42.1 °F35.1 °F76 %30.17 in10.0 miCalmPartly Cloudy
11:51 PM39.9 °F35.1 °F83 %30.15 in10.0 miCalmPartly Cloudy
Hourly data recorded from KALB, located miles away from Albany, New York







STORIES FROM OUR PARTNERS